COSMOS 1275 DEB, 14406

Orbit data source: Space-Track

COSMOS 1275 DEB, 14406 is space debris in LEO originally from a launch on Thu, 04 Jun 1981 UTC launched from the Plesetsk Missile And Space Complex (PKMTR). Debris objects in space refer to the collection of defunct objects orbiting the Earth. Examples of debris include non-operational satellites, rocket bodies, and fragments generated from explosions, collisions, or faulty payload assembly.

Loading next visibility...
Identifier
14406, 1981-053JB
Orbit
LEO
Country
Flag of CISCIS
Related business
Manufacturer
Unknown
Mission
Spacecraft
Bus & Motor
Unknown
Mass
Unknown
Launch date (UTC)
1981-06-04 (45 years ago)
Launch vehicle
Unknown
Launch site
Plesetsk Missile And Space Complex (PKMTR)
Object type
Payload
Rocket body
Debris
Shape & HBR
Unknown shape, 0.1 m
Radar Cross Section
Medium (>0.1 m² and <1 m²)

Expand to show TLE details & history
Last TLE update: 9 hours ago

TLE from 9 hours ago
0 COSMOS 1275 DEB
1 14406U 81053JB  26255.17934612  .00001598  00000-0  71002-3 0  9991
2 14406  82.8377 314.0043 0016433 304.0297  83.0292 14.22372351234181
Epoch: 2026-09-12T04:18Z
TLE epoch observation values (Epoch: 2026-09-12T04:18:15.504Z)
Latitude
27.0541°
Longitude
-98.09229°
Altitude
819.272 km
Speed
7.447 km/s
True Right ascension
21h 10m 39s
True Declination
26° 54' 58"
Sunlit
Object was in full shadow at epoch
Visualization orbit readout
Latitude
Unknown
Longitude
Unknown
Altitude
Unknown
Speed
Unknown
Apparent Right ascension
Unknown
Apparent Declination
Unknown
Sunlit
N/A
Visualization observer readout
Local Sidereal Time
05:39:12
Azimuth
Unknown
Elevation
Unknown
Doppler factor
Unknown
Orbital elements
Apogee altitude
826.248 km
Perigee altitude
802.609 km
Semi-major axis
7,192.565 km
Eccentricity
0.00164
Inclination
82.8377°
RAAN
314.0043°
Arg. of periapsis
304.0297°
True anomaly
83.21616°
Mean anomaly
83.0292°
Eccentric anomaly
83.12268°
Mean motion
3.55809 °/min
Orbital period
101.18 mins
BSTAR
0.00071002
Loading maneuver chart data...
Computing Atmospheric mass density...
Loading historical data...
Loading historical data...
Loading historical data...
Loading historical data...
Loading historical data...
Loading historical data...
Loading historical data...

Documentation

Showing up to 5 results
|